This is the latest recevied weather packets stored in our database for station/object W0WFX-2. If no packets are shown the sender has not sent any weather packets the latest 10 day(s).
| Time | Temp. | Humidity | Pressure | Rain* | Wind** | Luminosity | Snow |
|---|---|---|---|---|---|---|---|
| 1788392425 | 35.56° C | 41% | 1012.1 hPa | 0 mm | - | 45 W/m² | - |
| 1788392120 | 35.56° C | 40% | 1012 hPa | 0 mm | - | 57 W/m² | - |
| 1788391815 | 35.56° C | 39% | 1012 hPa | 0 mm | - | 55 W/m² | - |
| 1788391514 | 35.56° C | 39% | 1011.9 hPa | 0 mm | - | 57 W/m² | - |
| 1788391209 | 35.56° C | 39% | 1012 hPa | 0 mm | - | 54 W/m² | - |
| 1788390909 | 35.56° C | 38% | 1012 hPa | 0 mm | - | 52 W/m² | - |
| 1788390598 | 35.56° C | 38% | 1012.1 hPa | 0 mm | - | 48 W/m² | - |
| 1788390297 | 35.56° C | 38% | 1012.2 hPa | 0 mm | - | 54 W/m² | - |
| 1788389997 | 36.11° C | 37% | 1012.1 hPa | 0 mm | - | 54 W/m² | - |
| 1788389692 | 36.11° C | 36% | 1012.1 hPa | 0 mm | - | 55 W/m² | - |
| 1788389391 | 36.67° C | 36% | 1012.1 hPa | 0 mm | - | 52 W/m² | - |
| 1788389090 | 37.22° C | 35% | 1012.2 hPa | 0 mm | - | 64 W/m² | - |
| 1788388788 | 37.22° C | 35% | 1012.1 hPa | 0 mm | - | 67 W/m² | - |
| 1788388483 | 37.22° C | 35% | 1012.3 hPa | 0 mm | - | 81 W/m² | - |
| 1788388182 | 37.78° C | 34% | 1012.2 hPa | 0 mm | - | 107 W/m² | - |
| 1788387881 | 38.33° C | 34% | 1012 hPa | 0 mm | - | 155 W/m² | - |
| 1788387580 | 37.78° C | 34% | 1012.3 hPa | 0 mm | - | 317 W/m² | - |
| 1788387279 | 37.78° C | 34% | 1012.3 hPa | 0 mm | - | 330 W/m² | - |
| 1788386975 | 38.33° C | 34% | 1012.1 hPa | 0 mm | - | 368 W/m² | - |
| 1788386675 | 38.33° C | 35% | 1012.1 hPa | 0 mm | - | 369 W/m² | - |
| 1788386370 | 38.89° C | 33% | 1012.2 hPa | 0 mm | - | 381 W/m² | - |
| 1788386066 | 38.33° C | 34% | 1012.2 hPa | 0 mm | - | 405 W/m² | - |
| 1788385762 | 37.78° C | 34% | 1012.3 hPa | 0 mm | - | 419 W/m² | - |
| 1788385460 | 37.78° C | 33% | 1012.2 hPa | 0 mm | - | 426 W/m² | - |
| 1788385155 | 37.78° C | 36% | 1012.3 hPa | 0 mm | - | 446 W/m² | - |
* Rain latest hour (hover to see other rain measurements)
** Current wind speed in m/s (hover to see current wind gust speed)